OPS 4682 DEB, 14715

Orbit data source: Space-Track

OPS 4682 DEB, 14715 is space debris in LEO originally from a launch on Sat, 03 Apr 1965 UTC launched from the Air Force Western Test Range (AFWTR). Debris objects in space refer to the collection of defunct objects orbiting the Earth. Examples of debris include non-operational satellites, rocket bodies, and fragments generated from explosions, collisions, or faulty payload assembly.

Loading next visibility...
Identifier
14715, 1965-027N
Orbit
LEO
Country
Flag of USUS
Related business
Manufacturer
Unknown
Mission
Spacecraft
Bus & Motor
Unknown
Mass
Unknown
Launch date (UTC)
1965-04-03 (61 years ago)
Launch vehicle
Unknown
Launch site
Air Force Western Test Range (AFWTR)
Object type
Payload
Rocket body
Debris
Shape & HBR
Unknown shape, 0.1 m
Radar Cross Section
Medium (>0.1 m² and <1 m²)

Expand to show TLE details & history
Last TLE update: 23 hours ago

TLE from 23 hours ago
0 OPS 4682 DEB
1 14715U 65027N   26174.72371569  .00000215  00000-0  72102-3 0  9991
2 14715  90.2330 349.2070 0039826 116.7862 260.8819 12.96552865  9643
Epoch: 2026-06-23T17:22Z
TLE epoch observation values (Epoch: 2026-06-23T17:22:09.035Z)
Latitude
17.20398°
Longitude
176.70639°
Altitude
1,282.859 km
Speed
7.214 km/s
True Right ascension
23h 16m 32s
True Declination
17° 06' 49"
Sunlit
Object was in daylight at epoch
Visualization orbit readout
Latitude
Unknown
Longitude
Unknown
Altitude
Unknown
Speed
Unknown
Apparent Right ascension
Unknown
Apparent Declination
Unknown
Sunlit
N/A
Visualization observer readout
Local Sidereal Time
03:12:15
Azimuth
Unknown
Elevation
Unknown
Doppler factor
Unknown
Orbital elements
Apogee altitude
1,303.225 km
Perigee altitude
1,242.284 km
Semi-major axis
7,650.892 km
Eccentricity
0.00398
Inclination
90.233°
RAAN
349.207°
Arg. of periapsis
116.7862°
True anomaly
260.43165°
Mean anomaly
260.8819°
Eccentric anomaly
260.65674°
Mean motion
3.24321 °/min
Orbital period
111 mins
BSTAR
0.00072102
Loading maneuver chart data...
Computing Atmospheric mass density...
Loading historical data...
Loading historical data...
Loading historical data...
Loading historical data...
Loading historical data...
Loading historical data...
Loading historical data...

Documentation

Showing up to 5 results
|